Location: Clatteringshaws Loch
(55.0508°N, 4.2860°W)
Time: 05:50:29
(UTC+01:00)

Daily predictions for brighter satellites

Satellite Brightness Start Highest point End
(mag) Time Altitude Azimuth Time Altitude Azimuth Time Altitude Azimuth
ALOS 2 3.0 00:01:40 21° SE 00:04:27 54° ENE 00:08:46 10° N
Cosmos 1455 Rocket 4.2 00:02:38 20° SE 00:04:43 29° E 00:08:30 10° NNE
Cosmos 1602 3.7 00:03:31 23° S 00:05:48 74° E 00:09:45 10° NNE
Cosmos 2297 4.2 00:01:20 10° SW 00:07:01 63° NW 00:12:45 10° NNE
DMSP B5D2-2 4.5 00:02:03 10° NNE 00:07:14 64° WNW 00:12:24 10° SSW
Cosmos 1300 Rocket 3.9 00:03:54 13° SSW 00:07:45 63° WNW 00:12:12 10° N
NOSS 3-1 (A) 4.2 00:00:57 10° NW 00:08:07 60° SW 00:14:01 19° SSE
Meteor 1-11 Rocket 3.8 00:04:45 18° S 00:09:15 76° E 00:15:00 10° NNE
Okean 1 Rocket 3.4 00:06:38 15° SSW 00:10:19 68° WNW 00:14:47 10° N
Okean 2 3.4 00:08:12 10° N 00:12:24 77° ENE 00:14:43 26° SSE
Gbstr 26 Del rocket 4.4 00:10:20 10° W 00:13:59 21° SW 00:15:07 19° SSW
Iridium 4 Rocket 3.9 00:08:22 10° N 00:14:12 78° W 00:18:33 19° S
Meteor 2-15 Rocket 4.4 00:10:46 10° NNW 00:16:57 89° W 00:21:11 21° S
ISS -3.0 00:13:58 10° WSW 00:17:03 40° S 00:20:08 10° E
Cosmos 1503 Rocket 4.3 00:12:16 10° NNW 00:17:25 59° WSW 00:20:41 22° S
Cosmos 1315 Rocket 3.2 00:15:55 27° SSE 00:17:41 47° E 00:21:29 10° NNE
Cosmos 1833 4.4 00:12:03 10° NNW 00:17:41 70° NE 00:22:00 18° SE
CZ-4C R/B 3.2 00:17:58 28° SSE 00:19:52 77° ENE 00:23:36 10° NNW
Lacrosse 5 rocket 2.2 00:21:15 25° SE 00:21:15 25° SE 00:24:11 10° E
ASTEX 1 4.2 00:17:08 10° N 00:21:54 48° WNW 00:26:17 12° SSW
Lacrosse 5 2.7 00:20:15 24° S 00:21:59 29° SE 00:26:22 10° ENE
Genesis I 3.9 00:23:26 28° SSE 00:24:46 36° SE 00:28:29 10° ENE
Timation 1 Rocket 4.4 00:19:45 10° SW 00:25:47 84° NW 00:31:51 10° NE
Cosmos 1331 Rocket 4.2 00:21:51 10° SW 00:27:00 72° WNW 00:32:12 10° NNE
SeaSat 1 4.1 00:23:48 10° E 00:28:07 31° NE 00:32:27 10° NNW
MOS 1-B Rocket 4.4 00:23:46 19° SE 00:28:22 70° ENE 00:35:36 10° NNW
Meteor 2-14 Rocket 4.4 00:24:38 20° S 00:29:03 81° E 00:35:14 10° NNE
ATLAS 2AS CENTAUR R/B 3.1 00:21:22 10° NW 00:29:37 86° SW 00:36:36 14° SE
Cosmos 44 Rocket 3.5 00:25:51 10° NW 00:31:04 77° NE 00:35:09 16° SE
Meteor 1-23 Rocket 4.5 00:27:45 10° NNW 00:33:16 61° W 00:36:53 22° S
Cosmos 1110 Rocket 4.5 00:28:24 10° SW 00:33:35 60° WNW 00:38:45 10° NNE
Cosmos 1544 Rocket 3.6 00:31:55 27° S 00:34:12 68° E 00:38:32 10° NNE
Cosmos 1346 Rocket 2.8 00:31:08 10° N 00:35:04 68° ENE 00:36:57 29° SSE
Helios 1A Rocket 4.4 00:32:44 10° NE 00:36:10 24° E 00:37:46 19° SE
Cosmos 968 Rocket 3.8 00:34:02 10° NNW 00:39:17 63° ENE 00:43:01 19° SE
Cosmos 2369 Rocket 2.5 00:36:56 23° S 00:40:12 51° ESE 00:45:39 10° NE
CZ-2C R/B 3.9 00:36:42 15° SE 00:40:21 40° ENE 00:44:51 10° N
USA 234 3.3 00:37:29 10° ENE 00:43:59 60° SSE 00:50:25 10° SW
Cosmos 2219 3.6 00:38:57 10° NNW 00:44:35 62° NE 00:49:16 15° SE
CZ-2C R/B 3.7 00:40:01 10° NNE 00:44:36 30° E 00:47:20 19° SE
GP-B 3.9 00:41:01 10° NNE 00:45:17 42° E 00:47:34 23° SE
Cosmos 2227 Rocket 3.9 00:42:12 10° NNW 00:47:15 31° NE 00:52:17 10° E
Landsat 5 3.5 00:46:50 28° SSE 00:49:04 86° WSW 00:53:17 10° NNW
CZ-4B R/B 1.2 00:49:46 39° S 00:50:45 71° WSW 00:53:56 10° NNW
Cosmos 1400 Rocket 3.5 00:48:36 19° SW 00:51:22 54° WNW 00:55:28 10° N
Cosmos 1536 3.3 00:49:05 21° SW 00:51:31 55° WNW 00:55:28 10° N
H-2A R/B 2.8 00:51:22 10° NNE 00:55:55 62° ESE 00:58:11 28° S
H-2A R/B 4.5 00:54:48 10° WSW 00:57:02 13° W 00:59:17 10° WNW
Cosmos 1459 Rocket 4.4 00:55:42 22° SSE 00:59:26 49° E 01:05:14 10° NNE
Cosmos 1605 Rocket 4.1 00:59:01 21° SSW 01:03:34 80° WNW 01:10:03 10° N
Cosmos 1818 4.3 01:04:55 25° SSE 01:07:10 35° ESE 01:12:07 10° NE
Cosmos 44 3.6 01:02:27 10° NW 01:07:49 75° NE 01:12:28 12° SE
Cosmos 1975 3.2 01:06:55 30° SSE 01:08:38 54° E 01:12:39 10° NNE
Cosmos 1802 Rocket 4.5 01:04:46 22° SSE 01:08:38 50° E 01:14:42 10° NNE
Cosmos 2297 Rocket 3.9 01:03:37 10° NNW 01:08:41 32° NE 01:13:43 10° E
Meteor 1-5 Rocket 4.1 01:06:10 23° SSW 01:09:33 84° WNW 01:14:54 10° NNE
Cosmos 1743 4.4 01:08:04 17° ESE 01:09:43 23° E 01:12:48 10° NE
Cosmos 2285 Rocket 4.0 01:05:05 18° SSW 01:09:58 88° WNW 01:16:27 10° NNE
Cosmos 1825 Rocket 4.1 01:07:14 10° N 01:11:38 53° ENE 01:14:14 23° SE
Cosmos 1943 Rocket 2.7 01:14:08 25° SSE 01:16:55 44° ESE 01:22:13 10° NE
Cosmos 1633 4.1 01:16:07 16° SW 01:18:30 30° WNW 01:21:51 10° N
Cosmos 2173 Rocket 4.2 01:16:03 24° S 01:20:01 65° E 01:26:20 10° NNE
Cosmos 1992 Rocket 4.0 01:18:10 25° SSW 01:21:12 74° ESE 01:26:25 10° NNE
Cosmos 1777 Rocket 4.0 01:16:12 10° NNW 01:21:27 80° ENE 01:25:00 21° SSE
Uosat 12 SS-18 rocket 4.3 01:18:04 10° NW 01:22:29 76° NE 01:27:29 10° SE
Cosmos 1758 Rocket 4.3 01:20:34 10° N 01:24:57 47° ENE 01:27:50 20° SE
Cosmos 1602 Rocket 4.2 01:23:25 10° NNW 01:27:41 46° W 01:29:49 26° SSW
Cosmos 1689 Rocket 3.7 01:30:43 23° WSW 01:31:31 25° W 01:34:16 10° NW
Cosmos 1626 Rocket 4.3 01:28:17 10° NNW 01:32:32 42° W 01:34:40 25° SSW
BREEZE-M DEB (TANK) 3.7 01:20:57 10° W 01:33:17 50° SSW 01:36:48 12° SE
ALOS 2 4.2 01:39:04 17° SW 01:41:06 24° W 01:44:41 10° NW
Tsikada Rocket 4.1 01:35:45 10° N 01:42:03 75° ENE 01:46:38 20° SSE
Cosmos 1455 Rocket 4.0 01:39:45 19° SW 01:42:27 40° WNW 01:46:35 10° N
Meteor 1-12 Rocket 4.3 01:39:26 24° SSW 01:43:00 78° WNW 01:48:43 10° NNE
Cosmos 1500 3.1 01:43:22 33° S 01:44:58 79° E 01:48:48 10° NNE
Cosmos 2263 4.2 01:42:44 20° SW 01:46:45 84° NW 01:52:28 10° NNE
NOSS 3-4 (A) 4.0 01:45:57 10° NW 01:52:42 70° NNE 01:59:53 10° ESE
NOSS 3-4 (C) 4.1 01:46:03 10° NW 01:52:51 70° NNE 02:00:03 10° ESE
ISS -3.0 01:50:04 10° W 01:55:13 18° SE 01:56:17 10° ESE
Lacrosse 5 rocket 0.9 01:56:56 15° WSW 01:59:58 85° SSE 02:03:39 10° ENE
Genesis I 4.1 01:58:30 10° WSW 02:02:27 49° NNW 02:06:22 10° NE
Cosmos 2228 4.3 02:01:27 18° SE 02:04:02 32° E 02:07:52 10° NNE
Lacrosse 5 1.8 01:59:24 10° WSW 02:04:30 80° SSE 02:09:37 10° ENE
SeaSat 1 2.4 02:01:51 19° SSE 02:05:22 74° WSW 02:10:20 10° NW
SL-16 R/B 4.4 02:02:24 10° ESE 02:07:30 28° NE 02:12:35 10° N
PSLV R/B 4.1 02:06:28 29° S 02:08:25 59° WSW 02:12:33 10° NNW
Meteor 1-21 4.3 02:04:34 10° NNW 02:10:09 68° W 02:13:42 23° S
Helios 1A Rocket 3.6 02:07:38 10° N 02:11:41 49° WNW 02:14:06 22° SW
Cosmos 44 Rocket 4.5 02:07:55 10° WNW 02:12:13 27° WSW 02:13:50 23° SSW
Cosmos 972 Rocket 4.0 02:07:45 10° NNW 02:12:41 75° ENE 02:17:06 14° SSE
Cosmos 1606 Rocket 3.5 02:15:47 27° S 02:18:06 85° E 02:22:28 10° NNE
ATLAS 2AS CENTAUR R/B 3.9 02:12:58 10° NW 02:19:52 32° WSW 02:23:59 20° SSW
CZ-2C R/B 3.7 02:17:46 23° SSW 02:20:18 38° W 02:24:50 10° NNW
Cosmos 1898 Rocket 3.9 02:15:09 10° NNW 02:20:30 64° ENE 02:25:48 10° SE
Cosmos 2082 3.7 02:15:46 10° NNW 02:21:29 84° ENE 02:27:07 10° SE
GP-B 4.5 02:18:37 10° NNW 02:22:28 29° WNW 02:25:02 17° SW
Cosmos 2369 Rocket 3.2 02:19:02 10° WSW 02:24:24 43° NW 02:29:46 10° NNE
CZ-2C R/B 3.0 02:20:06 10° N 02:25:11 55° WNW 02:28:51 19° SW
Cosmos 1570 Rocket 4.5 02:23:39 22° S 02:26:58 53° ESE 02:32:09 10° NE
USA 234 3.3 02:20:40 10° ENE 02:27:15 83° NNW 02:33:49 10° W
Cosmos 2219 4.1 02:23:30 10° NW 02:28:28 32° WSW 02:31:09 21° SSW
Cosmos 1707 4.2 02:27:05 10° N 02:30:43 34° ENE 02:34:21 10° SE
PSLV R/B 4.1 02:26:33 10° NNE 02:30:54 54° E 02:33:47 21° S
H-2A R/B 4.4 02:27:28 10° N 02:31:09 25° WNW 02:34:48 10° WSW
Cosmos 2227 Rocket 2.2 02:26:14 10° NW 02:31:57 82° WSW 02:37:38 10° SSE
Cosmos 1937 Rocket 4.0 02:27:08 10° NNW 02:32:16 59° ENE 02:37:24 10° SE
Cosmos 2058 Rocket 3.1 02:35:52 24° S 02:38:32 89° E 02:43:02 10° NNE
Cosmos 1953 Rocket 4.4 02:34:54 10° NNW 02:38:50 35° W 02:40:57 22° SW
USA 161 4.1 02:36:52 10° ESE 02:38:53 18° ENE 02:40:51 10° NNE
Meteor 2-5 Rocket 4.2 02:33:23 10° N 02:39:13 64° ENE 02:45:05 10° SSE
GEOS 3 Rocket 4.0 02:35:00 10° ESE 02:40:09 69° NE 02:45:18 10° NW
Cosmos 2233 Rocket 4.0 02:38:23 19° S 02:42:55 81° E 02:49:05 10° NNE
Cosmos 1340 3.3 02:40:59 10° NNW 02:44:34 40° W 02:46:17 25° SSW
Cosmos 1743 3.5 02:43:14 22° SW 02:45:21 43° WNW 02:49:06 10° N
Cosmos 2016 Rocket 4.5 02:42:15 18° SW 02:46:41 49° WNW 02:52:38 10° N
Resurs 1-4 Rocket 4.4 02:44:27 10° NE 02:47:43 16° E 02:50:58 10° ESE
Cosmos 44 4.4 02:44:13 10° WNW 02:48:41 29° WSW 02:50:50 21° SSW
Cosmos 1818 3.9 02:45:32 13° WSW 02:50:31 67° NW 02:56:01 10° NE
Cosmos 1656 Rocket 3.7 02:47:40 19° SW 02:51:48 86° WNW 02:57:27 10° NNE
Cosmos 2297 Rocket 2.1 02:47:38 10° NW 02:53:19 79° WSW 02:58:58 10° SSE
Cosmos 1726 Rocket 3.9 02:51:43 21° SW 02:54:22 53° WNW 02:58:37 10° N
Meteor 2-17 Rocket 4.5 02:49:53 19° S 02:54:32 88° E 03:00:41 10° NNE
NPP 4.2 02:51:06 10° NNE 02:56:24 51° E 03:00:53 14° S
Cosmos 1842 4.3 02:53:06 10° NNW 02:56:43 33° W 02:58:38 21° SW
Cosmos 972 4.3 02:53:33 10° NNW 02:58:29 87° WSW 03:03:27 10° SSE
Cosmos 1943 Rocket 2.9 02:55:38 12° WSW 03:00:40 48° NW 03:06:09 10° NNE
SL-08 R/B 3.2 02:57:20 14° SSE 03:01:20 80° WSW 03:06:00 10° NNW
ATLAS CENTAUR R/B 3.6 02:59:10 11° SSE 03:02:40 21° ESE 03:06:20 10° ENE
Okean 3 Rocket 3.8 03:02:29 10° N 03:06:56 69° ENE 03:11:18 10° SSE
BREEZE-M DEB (TANK) 4.2 03:07:21 19° SSW 03:08:51 24° SSE 03:11:51 10° E
Cosmos 1461 3.9 03:05:37 10° NW 03:09:50 49° NE 03:13:50 10° ESE
Cosmos 2208 Rocket 4.0 03:08:37 18° SSW 03:12:31 84° WNW 03:17:51 10° NNE
Cosmos 1666 3.3 03:10:39 20° SW 03:12:58 45° WNW 03:16:38 10° N
CBERS-1 4.4 03:08:49 10° NNE 03:13:55 59° ESE 03:18:25 13° S
UNK 3.5 03:07:42 10° WSW 03:14:07 39° S 03:16:44 10° ESE
Cosmos 2298 Rocket 4.3 03:10:48 10° NW 03:15:57 51° WSW 03:20:41 12° S
Meteor 1-24 Rocket 3.9 03:16:45 10° NNW 03:22:25 79° ENE 03:28:16 10° SSE
Cosmos 405 Rocket 3.0 03:21:46 10° NNW 03:25:49 58° W 03:29:07 14° S
Gblst 52 Del rocket 4.4 03:19:25 10° WSW 03:26:02 65° S 03:31:50 10° E
Cosmos 2263 Rocket 4.3 03:21:12 10° NNW 03:26:09 30° NE 03:31:04 10° E
ISS -2.0 03:28:34 19° SW 03:29:07 20° SSW 03:31:34 10° SSE
Cosmos 1378 3.7 03:29:02 10° N 03:32:49 61° ENE 03:36:34 10° SSE
Cosmos 1076 Rocket 3.9 03:29:41 10° N 03:34:02 65° ENE 03:38:19 10° SSE
Cosmos 990 Rocket 4.0 03:31:26 10° NNW 03:36:40 68° WSW 03:41:53 10° SSE
SL-24 R/B 4.3 03:32:41 10° SSE 03:37:27 88° ENE 03:41:52 10° NNW
Lacrosse 5 rocket 1.5 03:35:40 10° W 03:39:20 62° N 03:42:58 10° E
Cosmos 1766 4.5 03:36:41 10° SSE 03:40:23 39° E 03:44:05 10° NNE
Cosmos 2228 4.0 03:38:20 14° SW 03:41:36 35° WNW 03:45:34 10° N
Cosmos 2034 Rocket 4.1 03:35:51 10° S 03:42:04 81° E 03:48:16 10° NNE
Cosmos 2227 4.4 03:36:17 10° NNW 03:42:06 78° NE 03:47:53 10° SE
NOSS 3-4 (A) 4.0 03:37:03 10° NW 03:43:32 46° SW 03:50:23 10° SSE
SeaSat 1 4.1 03:41:38 13° SW 03:43:41 16° WSW 03:46:38 10° WNW
NOSS 3-4 (C) 4.0 03:37:09 10° NW 03:43:41 46° SW 03:50:34 10° SSE
Nadezhda 4 Rocket 4.0 03:37:28 10° NNW 03:43:41 87° W 03:49:55 10° S
Cosmos 1656 4.4 03:39:13 10° S 03:44:37 47° ESE 03:50:01 10° NE
Cosmos 468 Rocket 4.2 03:40:58 12° SSW 03:45:42 67° ESE 03:50:50 10° NNE
ERS-2 2.4 03:42:00 10° NNE 03:45:44 69° ESE 03:49:16 11° S
Lacrosse 5 2.2 03:42:33 10° W 03:47:40 70° N 03:52:46 10° E
CZ-2D R/B 3.2 03:43:00 10° NNE 03:48:14 43° E 03:53:22 10° SSE
SAR-Lupe-3 4.5 03:44:56 10° S 03:48:24 66° WSW 03:51:54 10° NNW
IRS-1C 4.2 03:43:35 10° NNE 03:48:59 88° ESE 03:54:17 10° SSW
SL-16 R/B 2.5 03:44:23 10° SSE 03:50:35 82° WSW 03:56:48 10° NNW
Okean O Rocket 4.1 03:47:45 10° NE 03:50:50 18° E 03:53:54 10° SE
NOSS 3-3 (A) 4.3 03:50:11 10° WSW 03:56:40 75° NW 04:03:47 10° NE
NOSS 3-3 (C) 4.3 03:50:16 10° WSW 03:56:45 75° NW 04:03:51 10° NE
In-Cosmos 22 4.2 03:55:04 10° NNW 04:00:24 78° ENE 04:05:41 10° SSE
Cosmos 1441 Rocket 3.3 03:56:59 10° NNW 04:00:58 75° W 04:04:58 10° S
AQUA 4.1 03:58:35 10° N 04:03:18 60° WNW 04:07:56 10° SSW
Cosmos 1408 Rocket 3.5 04:00:46 10° NNW 04:05:09 72° W 04:09:32 10° S
EO 1 Del DPAF 3.2 04:02:42 10° SSE 04:06:35 77° WSW 04:10:30 10° NNW
Cosmos 1707 3.8 04:03:12 10° NNW 04:06:38 29° W 04:10:01 10° SSW
Cosmos-2242 4.1 04:04:20 10° SSE 04:08:25 43° E 04:12:30 10° NNE
Cosmos 1766 Rocket 3.6 04:04:07 10° NNW 04:08:31 72° W 04:12:55 10° S
Cosmos 1125 Rocket 3.5 04:03:31 10° NNW 04:08:47 79° WSW 04:13:58 10° SSE
USA 161 2.3 04:06:34 11° SSW 04:09:06 32° W 04:11:38 10° NNW
Abrixas 4.4 04:08:01 12° SW 04:09:19 14° SSW 04:11:03 10° SSE
Cosmos 1697 Rocket 3.3 04:04:01 10° S 04:09:30 53° ESE 04:15:01 10° NE
Cosmos 1953 3.5 04:05:45 10° SSE 04:09:35 41° E 04:13:27 10° NNE
Cosmos 2369 Rocket 4.5 04:05:58 10° WNW 04:09:56 19° NNW 04:13:52 10° NNE
USA 234 3.5 04:03:39 10° E 04:10:14 79° N 04:16:47 10° WNW
CBERS 1 LM4 rocket 4.4 04:05:40 10° NNE 04:10:25 70° WNW 04:15:14 10° SSW
Geosat 4.1 04:07:43 10° NE 04:12:48 86° ESE 04:17:51 10° SSW
Cosmos 1937 Rocket 4.4 04:09:33 10° NW 04:13:57 29° WSW 04:18:21 10° SSW
Cosmos 2026 Rocket 4.3 04:08:14 10° N 04:14:39 74° ENE 04:20:57 10° SSE
Cosmos 2227 Rocket 3.7 04:11:24 10° WNW 04:15:12 19° W 04:18:59 10° SW
Cosmos 1812 Rocket 4.5 04:11:34 10° SW 04:15:42 36° WNW 04:19:52 10° N
Cosmos 841 Rocket 4.0 04:12:09 10° S 04:17:19 57° ESE 04:22:30 10° NNE
Cosmos 1980 Rocket 3.2 04:12:42 10° S 04:17:57 41° ESE 04:23:15 10° NE
GEOS 3 Rocket 4.1 04:13:40 10° SSE 04:18:30 38° SW 04:23:18 10° WNW
Cosmos 2084 4.2 04:18:32 10° NW 04:22:25 55° NNE 04:26:30 10° ESE
Cosmos 1763 Rocket 3.7 04:18:15 10° SSW 04:23:27 69° ESE 04:28:36 10° NNE
ARIANE 5 R/B 2.6 04:22:23 10° NNE 04:27:32 83° WNW 04:32:42 10° SSW
Resurs 1-4 Rocket 2.2 04:23:06 10° NNE 04:28:26 82° ESE 04:33:42 10° SSW
Cosmos 1634 Rocket 4.3 04:22:20 10° S 04:28:34 74° E 04:34:54 10° NNE
ADEOS 3.9 04:24:27 10° N 04:29:36 58° WNW 04:34:42 10° SW
Cosmos 2322 Rocket 4.2 04:25:35 10° SSE 04:29:57 24° ESE 04:34:18 10° NE
Cosmos 1092 Rocket 4.2 04:27:20 10° NNW 04:33:27 56° W 04:39:35 10° SSW
Cosmos 2297 Rocket 3.7 04:32:53 10° WNW 04:36:30 18° W 04:40:08 10° SW
